Hourly Data Report for August 16, 2005

TORONTO CITY
ONTARIO

43°40'00.000" N
79°24'00.000" W
112.50 m
6158355
71508
XTO

Download Data

Hourly Data (August 2005)
Hourly Data Report for August 16, 2005
TIME
LST
Temp Definition
°C
Dew Point Definition
°C
Rel Hum Definition
%
Precip. Amount Definition
mm

Wind Dir Definition
10's deg

Wind Spd Definition
km/h
Visibility Definition
km
Stn Press Definition
kPa
Hmdx Definition


Wind Chill Definition


Weather Definition


00:00 21.0 11.4 54   LegendMM LegendMM   100.64     LegendNANA
01:00 19.8 11.7 60   LegendMM LegendMM   100.61     LegendNANA
02:00 19.3 12.3 64   LegendMM LegendMM   100.58     LegendNANA
03:00 18.5 12.5 68   LegendMM LegendMM   100.57     LegendNANA
04:00 17.7 12.8 73   LegendMM LegendMM   100.58     LegendNANA
05:00 16.6 13.0 79   LegendMM LegendMM   100.61     LegendNANA
06:00 16.5 13.2 81   LegendMM LegendMM   100.61     LegendNANA
07:00 18.3 13.8 75   LegendMM LegendMM   100.63     LegendNANA
08:00 20.7 14.5 68   LegendMM LegendMM   100.64     LegendNANA
09:00 23.1 11.7 49   LegendMM LegendMM   100.60 25   LegendNANA
10:00 25.2 12.6 45   LegendMM LegendMM   100.58 28   LegendNANA
11:00 25.7 11.1 40   LegendMM LegendMM   100.54 28   LegendNANA
12:00 25.7 9.9 37   LegendMM LegendMM   100.50 27   LegendNANA
13:00 25.7 11.3 41   LegendMM LegendMM   100.46 28   LegendNANA
14:00 23.6 13.2 52   LegendMM LegendMM   100.43 27   LegendNANA
15:00 26.0 13.0 45   LegendMM LegendMM   100.35 29   LegendNANA
16:00 26.5 11.2 38   LegendMM LegendMM   100.29 28   LegendNANA
17:00 25.4 13.6 48   LegendMM LegendMM   100.26 29   LegendNANA
18:00 26.9 14.6 47   LegendMM LegendMM   100.23 31   LegendNANA
19:00 26.5 15.4 51   LegendMM LegendMM   100.22 31   LegendNANA
20:00 25.1 16.2 58   LegendMM LegendMM   100.27 30   LegendNANA
21:00 23.8 14.6 56   LegendMM LegendMM   100.34 28   LegendNANA
22:00 21.8 14.2 62   LegendMM LegendMM   100.34 25   LegendNANA
23:00 21.2 14.8 67   LegendMM LegendMM   100.34 25   LegendNANA

Notes on Data Quality.

Legend

  • E = Estimated
  • M = Missing
  • NA = Not Available*
  • [empty] = Indicates an unobserved value
Date modified: